User: anonymous   Login
Location: Unspecified
(0.0000°N, 0.0000°E)
Time: 03:20:09
(UTC+00:00)
Language:

STARLINK-32173 - Orbit

View from above orbital plane
View from above orbital plane
View from above satellite
View from above satellite

Ground track
Ground track

The orbit is defined by the following mean orbital elements,

1 60586U          26145.48262243 +.00000000 +00000-0 +62411-4 0 00005
2 60586  53.1606 309.2717 0001027  97.5188 262.5931 15.34395071    01
Epoch (UTC): 25 May 2026 11:34:58
Eccentricity: 0.0001027
inclination: 53.1606°
perigee height: 462 km
apogee height: 463 km
right ascension of ascending node: 309.2717°
argument of perigee: 97.5188°
revolutions per day: 15.34395071
mean anomaly at epoch: 262.5931°

The dashed part of the orbit path shows where the satellite is in the earth's shadow,  

DLR